FENGYUN 1C DEB, 31016

Orbit data source: Space-Track

FENGYUN 1C DEB, 31016 is space debris in SSO originally from a launch on Mon, 10 May 1999 UTC launched from the Taiyaun Space Center, China (TSC). Fengyun 1C debris stems from the Chinese weather satellite Fengyun-1C, which was intentionally destroyed by a Chinese anti-satellite missile in 2007. This event dramatically increased the amount of space debris, with thousands of trackable fragments posing hazards to satellites and human spaceflight. The Fengyun 1C debris cloud has become a focal point in discussions about space sustainability and the need for international regulations to prevent the creation of new debris.

Loading next visibility...
Identifier
31016, 1999-025BDJ
Orbit
SSO
Country
Flag of CNCN / PRC
Related business
Manufacturer
Unknown
Mission
Spacecraft
Bus & Motor
Unknown
Mass
Unknown
Launch date (UTC)
1999-05-10 (27 years ago)
Launch vehicle
Unknown
Launch site
Taiyaun Space Center, China (TSC)
Object type
Payload
Rocket body
Debris
Shape & HBR
Unknown shape, 0.1 m
Radar Cross Section
Small (<0.1 m²)

Expand to show TLE details & history
Last TLE update: 1 day ago

TLE from 1 day ago
0 FENGYUN 1C DEB
1 31016U 99025BDJ 26121.83735450  .00000460  00000-0  17978-3 0  9998
2 31016  98.4280 138.4829 0111961 219.4905 320.0973 14.30714053994732
Epoch: 2026-05-01T20:05Z
TLE epoch observation values (Epoch: 2026-05-01T20:05:47.428Z)
Latitude
1.12004°
Longitude
157.43649°
Altitude
730.947 km
Speed
7.522 km/s
True Right ascension
21h 14m 35s
True Declination
1° 06' 48"
Sunlit
Object was in daylight at epoch
Visualization orbit readout
Latitude
Unknown
Longitude
Unknown
Altitude
Unknown
Speed
Unknown
Apparent Right ascension
Unknown
Apparent Declination
Unknown
Sunlit
N/A
Visualization observer readout
Local Sidereal Time
09:35:32
Azimuth
Unknown
Elevation
Unknown
Doppler factor
Unknown
Orbital elements
Apogee altitude
866.691 km
Perigee altitude
706.26 km
Semi-major axis
7,164.612 km
Eccentricity
0.0112
Inclination
98.428°
RAAN
138.4829°
Arg. of periapsis
219.4905°
True anomaly
319.26539°
Mean anomaly
320.0973°
Eccentric anomaly
319.68224°
Mean motion
3.57894 °/min
Orbital period
100.59 mins
BSTAR
0.00017978
Loading maneuver chart data...
Computing Atmospheric mass density...

Documentation

Showing up to 5 results
|